Time,TemperatureF,DewpointF,PressureIn,WindDirection,WindDirectionDegrees,WindSpeedMPH,WindSpeedGustMPH,Humidity,HourlyPrecipIn,Conditions,Clouds,dailyrainin,SoftwareType,DateUTC
2013-04-28 00:01:00,45.0,45.0,30.26,WNW,291,5.0,-999.0,99,-99.99,,,0.00,weatherlink.com 1.10,2013-04-28 04:01:00,
2013-04-28 00:16:00,45.0,45.0,30.25,SW,224,6.0,-999.0,99,-99.99,,,0.00,weatherlink.com 1.10,2013-04-28 04:16:00,
2013-04-28 00:31:00,44.9,45.0,30.26,South,178,5.0,-999.0,99,-99.99,,,0.01,weatherlink.com 1.10,2013-04-28 04:31:00,
2013-04-28 00:46:00,44.9,45.0,30.26,WSW,238,5.0,-999.0,99,-99.99,,,0.01,weatherlink.com 1.10,2013-04-28 04:46:00,
2013-04-28 01:01:00,44.7,45.0,30.26,SSW,202,5.0,-999.0,99,-99.99,,,0.01,weatherlink.com 1.10,2013-04-28 05:01:00,
2013-04-28 01:16:00,44.8,45.0,30.25,SW,226,3.0,-999.0,99,-99.99,,,0.01,weatherlink.com 1.10,2013-04-28 05:16:00,
2013-04-28 01:31:00,44.5,44.0,30.24,South,172,5.0,-999.0,99,-99.99,,,0.01,weatherlink.com 1.10,2013-04-28 05:31:00,
2013-04-28 01:46:00,44.5,44.0,30.24,SSW,213,5.0,-999.0,99,-99.99,,,0.01,weatherlink.com 1.10,2013-04-28 05:46:00,
2013-04-28 02:01:00,44.7,45.0,30.24,South,175,5.0,-999.0,99,-99.99,,,0.01,weatherlink.com 1.10,2013-04-28 06:01:00,
2013-04-28 02:16:00,44.7,45.0,30.23,SW,215,9.0,-999.0,99,-99.99,,,0.01,weatherlink.com 1.10,2013-04-28 06:16:00,
2013-04-28 02:31:00,44.6,44.0,30.22,SSE,164,7.0,-999.0,99,-99.99,,,0.02,weatherlink.com 1.10,2013-04-28 06:31:00,
2013-04-28 02:46:00,44.5,44.0,30.21,SSE,153,5.0,-999.0,99,-99.99,,,0.02,weatherlink.com 1.10,2013-04-28 06:46:00,
2013-04-28 03:01:00,44.5,44.0,30.21,SSW,198,8.0,-999.0,99,-99.99,,,0.02,weatherlink.com 1.10,2013-04-28 07:01:00,
2013-04-28 03:16:00,44.5,44.0,30.21,SSE,161,5.0,-999.0,99,-99.99,,,0.02,weatherlink.com 1.10,2013-04-28 07:16:00,
2013-04-28 03:31:00,44.6,44.0,30.22,SSW,202,5.0,-999.0,99,-99.99,,,0.02,weatherlink.com 1.10,2013-04-28 07:31:00,
2013-04-28 03:46:00,44.5,44.0,30.22,SSW,192,16.0,-999.0,99,-99.99,,,0.03,weatherlink.com 1.10,2013-04-28 07:46:00,
2013-04-28 04:01:00,44.5,44.0,30.22,South,177,7.0,-999.0,99,-99.99,,,0.03,weatherlink.com 1.10,2013-04-28 08:01:00,
2013-04-28 04:16:00,44.5,44.0,30.22,South,189,7.0,-999.0,99,-99.99,,,0.03,weatherlink.com 1.10,2013-04-28 08:16:00,
2013-04-28 04:31:00,44.4,44.0,30.21,South,183,11.0,-999.0,99,-99.99,,,0.03,weatherlink.com 1.10,2013-04-28 08:31:00,
2013-04-28 04:46:00,44.2,44.0,30.21,SE,144,9.0,-999.0,99,-99.99,,,0.03,weatherlink.com 1.10,2013-04-28 08:46:00,
2013-04-28 05:01:00,43.9,44.0,30.21,South,181,2.0,-999.0,99,-99.99,,,0.03,weatherlink.com 1.10,2013-04-28 09:01:00,
2013-04-28 05:16:00,43.9,44.0,30.21,SSE,165,15.0,-999.0,99,-99.99,,,0.03,weatherlink.com 1.10,2013-04-28 09:16:00,
2013-04-28 05:31:00,43.4,43.0,30.22,South,180,8.0,-999.0,99,-99.99,,,0.03,weatherlink.com 1.10,2013-04-28 09:31:00,
2013-04-28 05:46:00,43.3,43.0,30.21,South,179,6.0,-999.0,99,-99.99,,,0.03,weatherlink.com 1.10,2013-04-28 09:46:00,
2013-04-28 06:01:00,43.4,43.0,30.21,SSE,159,9.0,-999.0,99,-99.99,,,0.03,weatherlink.com 1.10,2013-04-28 10:01:00,
2013-04-28 06:16:00,43.5,43.0,30.20,South,175,8.0,-999.0,99,-99.99,,,0.04,weatherlink.com 1.10,2013-04-28 10:16:00,
2013-04-28 06:32:00,43.2,43.0,30.20,SSE,155,7.0,-999.0,99,-99.99,,,0.04,weatherlink.com 1.10,2013-04-28 10:32:00,
2013-04-28 06:47:00,43.2,43.0,30.20,South,178,9.0,-999.0,99,-99.99,,,0.04,weatherlink.com 1.10,2013-04-28 10:47:00,
2013-04-28 07:02:00,42.8,43.0,30.20,SSE,164,9.0,-999.0,99,-99.99,,,0.04,weatherlink.com 1.10,2013-04-28 11:02:00,
2013-04-28 07:17:00,42.7,43.0,30.21,SSE,153,10.0,-999.0,99,-99.99,,,0.04,weatherlink.com 1.10,2013-04-28 11:17:00,
2013-04-28 07:32:00,42.8,43.0,30.21,SSW,207,11.0,-999.0,99,-99.99,,,0.04,weatherlink.com 1.10,2013-04-28 11:32:00,
2013-04-28 07:47:00,43.1,43.0,30.22,SE,143,10.0,-999.0,99,-99.99,,,0.04,weatherlink.com 1.10,2013-04-28 11:47:00,
2013-04-28 08:02:00,42.9,43.0,30.23,SSE,167,5.0,-999.0,99,-99.99,,,0.04,weatherlink.com 1.10,2013-04-28 12:02:00,
2013-04-28 08:17:00,42.5,42.0,30.23,South,190,4.0,-999.0,99,-99.99,,,0.04,weatherlink.com 1.10,2013-04-28 12:17:00,
2013-04-28 08:32:00,42.4,42.0,30.22,SSE,148,7.0,-999.0,99,-99.99,,,0.05,weatherlink.com 1.10,2013-04-28 12:32:00,
2013-04-28 08:47:00,42.7,43.0,30.22,South,173,8.0,-999.0,99,-99.99,,,0.06,weatherlink.com 1.10,2013-04-28 12:47:00,
2013-04-28 09:02:00,42.4,42.0,30.23,South,173,9.0,-999.0,99,-99.99,,,0.07,weatherlink.com 1.10,2013-04-28 13:02:00,
2013-04-28 09:17:00,41.9,42.0,30.24,South,186,8.0,-999.0,99,-99.99,,,0.08,weatherlink.com 1.10,2013-04-28 13:17:00,
2013-04-28 09:32:00,41.6,41.0,30.24,SSW,198,2.0,-999.0,99,-99.99,,,0.09,weatherlink.com 1.10,2013-04-28 13:32:00,
2013-04-28 09:47:00,41.8,42.0,30.24,South,190,1.0,-999.0,99,-99.99,,,0.10,weatherlink.com 1.10,2013-04-28 13:47:00,
2013-04-28 10:02:00,42.1,42.0,30.23,SSW,192,3.0,-999.0,99,-99.99,,,0.10,weatherlink.com 1.10,2013-04-28 14:02:00,
2013-04-28 10:17:00,42.4,42.0,30.23,NW,317,3.0,-999.0,99,-99.99,,,0.10,weatherlink.com 1.10,2013-04-28 14:17:00,
2013-04-28 10:32:00,42.5,42.0,30.25,NW,319,9.0,-999.0,99,-99.99,,,0.11,weatherlink.com 1.10,2013-04-28 14:32:00,
2013-04-28 10:47:00,42.3,42.0,30.25,NW,320,5.0,-999.0,99,-99.99,,,0.15,weatherlink.com 1.10,2013-04-28 14:47:00,
2013-04-28 11:02:00,42.9,43.0,30.25,NNW,339,3.0,-999.0,99,-99.99,,,0.18,weatherlink.com 1.10,2013-04-28 15:02:00,
2013-04-28 11:17:00,43.7,44.0,30.23,East,91,7.0,-999.0,99,-99.99,,,0.19,weatherlink.com 1.10,2013-04-28 15:17:00,
2013-04-28 11:32:00,44.9,45.0,30.24,SW,215,4.0,-999.0,99,-99.99,,,0.20,weatherlink.com 1.10,2013-04-28 15:32:00,
2013-04-28 11:47:00,44.4,44.0,30.23,SW,234,2.0,-999.0,99,-99.99,,,0.21,weatherlink.com 1.10,2013-04-28 15:47:00,
2013-04-28 12:02:00,44.2,44.0,30.23,SW,235,7.0,-999.0,99,-99.99,,,0.23,weatherlink.com 1.10,2013-04-28 16:02:00,
2013-04-28 12:17:00,43.9,44.0,30.23,WSW,249,2.0,-999.0,99,-99.99,,,0.26,weatherlink.com 1.10,2013-04-28 16:17:00,
2013-04-28 12:32:00,43.8,44.0,30.23,WNW,301,1.0,-999.0,99,-99.99,,,0.32,weatherlink.com 1.10,2013-04-28 16:32:00,
2013-04-28 12:47:00,44.1,44.0,30.24,NW,305,3.0,-999.0,99,-99.99,,,0.37,weatherlink.com 1.10,2013-04-28 16:47:00,
2013-04-28 13:02:00,44.3,44.0,30.23,NW,305,3.0,-999.0,99,-99.99,,,0.41,weatherlink.com 1.10,2013-04-28 17:02:00,
2013-04-28 13:17:00,44.7,45.0,30.23,NW,305,5.0,-999.0,99,-99.99,,,0.45,weatherlink.com 1.10,2013-04-28 17:17:00,
2013-04-28 13:32:00,45.4,45.0,30.21,NW,305,5.0,-999.0,99,-99.99,,,0.48,weatherlink.com 1.10,2013-04-28 17:32:00,
2013-04-28 13:47:00,46.0,46.0,30.20,NW,305,3.0,-999.0,99,-99.99,,,0.49,weatherlink.com 1.10,2013-04-28 17:47:00,
2013-04-28 14:02:00,46.5,46.0,30.19,NW,322,2.0,-999.0,99,-99.99,,,0.50,weatherlink.com 1.10,2013-04-28 18:02:00,
2013-04-28 14:17:00,47.3,47.0,30.20,WNW,298,4.0,-999.0,99,-99.99,,,0.50,weatherlink.com 1.10,2013-04-28 18:17:00,
2013-04-28 14:32:00,47.2,47.0,30.19,NW,323,1.0,-999.0,99,-99.99,,,0.51,weatherlink.com 1.10,2013-04-28 18:32:00,
2013-04-28 14:47:00,47.6,47.0,30.19,NW,323,0.0,-999.0,99,-99.99,,,0.51,weatherlink.com 1.10,2013-04-28 18:47:00,
2013-04-28 15:02:00,47.3,47.0,30.18,East,85,0.0,-999.0,99,-99.99,,,0.52,weatherlink.com 1.10,2013-04-28 19:02:00,
2013-04-28 15:17:00,46.7,47.0,30.17,East,88,0.0,-999.0,99,-99.99,,,0.53,weatherlink.com 1.10,2013-04-28 19:17:00,
2013-04-28 15:32:00,46.7,47.0,30.16,East,92,6.0,-999.0,99,-99.99,,,0.53,weatherlink.com 1.10,2013-04-28 19:32:00,
2013-04-28 15:47:00,46.4,46.0,30.16,East,95,2.0,-999.0,99,-99.99,,,0.54,weatherlink.com 1.10,2013-04-28 19:47:00,
2013-04-28 16:02:00,46.8,47.0,30.16,East,95,0.0,-999.0,99,-99.99,,,0.55,weatherlink.com 1.10,2013-04-28 20:02:00,
2013-04-28 16:17:00,47.2,47.0,30.16,East,96,0.0,-999.0,99,-99.99,,,0.57,weatherlink.com 1.10,2013-04-28 20:17:00,
2013-04-28 16:32:00,47.4,47.0,30.15,East,96,1.0,-999.0,99,-99.99,,,0.58,weatherlink.com 1.10,2013-04-28 20:32:00,
2013-04-28 16:47:00,47.4,47.0,30.14,East,96,0.0,-999.0,99,-99.99,,,0.59,weatherlink.com 1.10,2013-04-28 20:47:00,
2013-04-28 17:02:00,46.8,47.0,30.14,East,100,2.0,-999.0,99,-99.99,,,0.59,weatherlink.com 1.10,2013-04-28 21:02:00,
2013-04-28 17:17:00,46.9,47.0,30.13,SE,126,0.0,-999.0,99,-99.99,,,0.59,weatherlink.com 1.10,2013-04-28 21:17:00,
2013-04-28 17:32:00,46.8,47.0,30.14,SE,127,2.0,-999.0,99,-99.99,,,0.60,weatherlink.com 1.10,2013-04-28 21:32:00,
2013-04-28 17:47:00,46.6,46.0,30.12,SE,132,4.0,-999.0,99,-99.99,,,0.61,weatherlink.com 1.10,2013-04-28 21:47:00,
2013-04-28 18:02:00,46.8,47.0,30.13,SE,139,5.0,-999.0,99,-99.99,,,0.62,weatherlink.com 1.10,2013-04-28 22:02:00,
2013-04-28 18:17:00,46.7,47.0,30.12,South,188,0.0,-999.0,99,-99.99,,,0.62,weatherlink.com 1.10,2013-04-28 22:17:00,
2013-04-28 18:32:00,46.5,46.0,30.13,SSW,192,1.0,-999.0,99,-99.99,,,0.63,weatherlink.com 1.10,2013-04-28 22:32:00,
2013-04-28 18:47:00,46.5,46.0,30.13,SSW,207,4.0,-999.0,99,-99.99,,,0.64,weatherlink.com 1.10,2013-04-28 22:47:00,
2013-04-28 19:02:00,46.3,46.0,30.13,SW,232,5.0,-999.0,99,-99.99,,,0.66,weatherlink.com 1.10,2013-04-28 23:02:00,
2013-04-28 19:17:00,46.1,46.0,30.13,SW,225,1.0,-999.0,99,-99.99,,,0.68,weatherlink.com 1.10,2013-04-28 23:17:00,
2013-04-28 19:32:00,46.0,46.0,30.13,West,263,3.0,-999.0,99,-99.99,,,0.70,weatherlink.com 1.10,2013-04-28 23:32:00,
2013-04-28 19:47:00,46.1,46.0,30.12,West,263,5.0,-999.0,99,-99.99,,,0.71,weatherlink.com 1.10,2013-04-28 23:47:00,
2013-04-28 20:02:00,46.7,47.0,30.12,West,263,4.0,-999.0,99,-99.99,,,0.72,weatherlink.com 1.10,2013-04-29 00:02:00,
2013-04-28 20:17:00,46.1,46.0,30.11,West,263,3.0,-999.0,99,-99.99,,,0.72,weatherlink.com 1.10,2013-04-29 00:17:00,
2013-04-28 20:32:00,46.4,46.0,30.11,West,263,2.0,-999.0,99,-99.99,,,0.73,weatherlink.com 1.10,2013-04-29 00:32:00,
2013-04-28 20:47:00,46.3,46.0,30.10,West,263,8.0,-999.0,99,-99.99,,,0.73,weatherlink.com 1.10,2013-04-29 00:47:00,
2013-04-28 21:02:00,46.8,47.0,30.09,SSE,166,6.0,-999.0,99,-99.99,,,0.73,weatherlink.com 1.10,2013-04-29 01:02:00,
2013-04-28 21:17:00,46.5,46.0,30.10,SSW,211,7.0,-999.0,99,-99.99,,,0.74,weatherlink.com 1.10,2013-04-29 01:17:00,
2013-04-28 21:32:00,46.0,46.0,30.10,SSW,193,3.0,-999.0,99,-99.99,,,0.74,weatherlink.com 1.10,2013-04-29 01:32:00,
2013-04-28 21:47:00,45.8,46.0,30.10,South,189,6.0,-999.0,99,-99.99,,,0.74,weatherlink.com 1.10,2013-04-29 01:47:00,
2013-04-28 22:02:00,45.9,46.0,30.09,South,173,2.0,-999.0,99,-99.99,,,0.75,weatherlink.com 1.10,2013-04-29 02:02:00,
2013-04-28 22:17:00,45.9,46.0,30.07,South,176,6.0,-999.0,100,-99.99,,,0.75,weatherlink.com 1.10,2013-04-29 02:17:00,
2013-04-28 22:32:00,45.9,46.0,30.09,South,178,4.0,-999.0,100,-99.99,,,0.75,weatherlink.com 1.10,2013-04-29 02:32:00,
2013-04-28 22:47:00,45.9,46.0,30.10,WNW,284,3.0,-999.0,100,-99.99,,,0.75,weatherlink.com 1.10,2013-04-29 02:47:00,
2013-04-28 23:02:00,45.9,46.0,30.11,NW,323,2.0,-999.0,100,-99.99,,,0.75,weatherlink.com 1.10,2013-04-29 03:02:00,
2013-04-28 23:17:00,45.9,46.0,30.11,NW,323,0.0,-999.0,100,-99.99,,,0.75,weatherlink.com 1.10,2013-04-29 03:17:00,
2013-04-28 23:32:00,46.1,46.0,30.10,NW,323,0.0,-999.0,99,-99.99,,,0.76,weatherlink.com 1.10,2013-04-29 03:32:00,
2013-04-28 23:47:00,46.4,46.0,30.11,NW,323,0.0,-999.0,100,-99.99,,,0.76,weatherlink.com 1.10,2013-04-29 03:47:00,